User: anonymous   Login
Location: Mason Neck State Park
(38.6428°N, 77.1981°W)
Time: 19:05:57
(UTC-05:00)
Language:

Cosmos 1400 Rocket - Orbit

View from above orbital plane
View from above orbital plane
View from above satellite
View from above satellite

Ground track
Ground track

The orbit data is extracted from the following two-line orbital elements,

1 13403U 82079B   15065.54951371  .00003126  00000-0  21640-3 0  9997
2 13403 081.1713 143.2890 0036201 141.7257 218.6546 15.04861687771250
Epoch (UTC): 06 March 2015 13:11:17
Eccentricity: 0.0036201
inclination: 81.1713°
perigee height: 527 km
apogee height: 577 km
right ascension of ascending node: 143.2890°
argument of perigee: 141.7257°
revolutions per day: 15.04861687
mean anomaly at epoch: 218.6546°
orbit number at epoch: 77125

The dashed part of the orbit path shows where the satellite is in the earth's shadow,  

DLR